Regional Weather Roundup
Issued by NWS

Home | Current Version | Previous Version | Graphics & Text | Print | Product List | Glossary On
Versions: 1 2 3 4 5 6 7 8 9 10 11 12 13 14 15 16 17 18 19 20 21 22 23 24 25 26 27 28 29 30 31 32 33 34 35 36 37 38 39 40 41 42 43 44 45 46 47 48 49 50
000
ASUS43 KIND 272100
RWRIN

WEATHER ROUNDUP FOR INDIANA
NATIONAL WEATHER SERVICE INDIANAPOLIS IN
500 PM EDT THU JUL 27 2017

NOTE: "FAIR" INDICATES FEW OR NO CLOUDS BELOW 12,000 FEET WITH NO
SIGNIFICANT WEATHER AND/OR OBSTRUCTIONS TO VISIBILITY.

* - STATION DOES NOT REPORT WEATHER SUCH AS PRECIPITATION OR FOG.

+ - STATION NOT QUALITY CONTROLLED BY THE NATIONAL WEATHER SERVICE.
    USE DATA WITH CAUTION...ESPECIALLY DEWPOINT AND RELATIVE
    HUMIDITY OBSERVATIONS.

INZ001>003-010>013-019-020-272200-
NORTHWEST INDIANA

CITY           SKY/WX    TMP DP  RH WIND       PRES   REMARKS
GARY /AIRPORT/ CLOUDY    75  70  83 N14       29.94S
MICHIGAN CITY+ CLOUDY    77  70  78 N10G16    29.93S
MONTICELLO +   CLOUDY    82  75  79 N8        29.88F
RENSSELAER +   CLOUDY    81  72  74 N6G16     29.89F

$$

LMZ046-743>745-272200-
SOUTHERN LAKE MICHIGAN

STATION/POSITION TIME  TEMP    WIND        PRES    WAVE
                       AIR SEA DIR/SP/G            HT
                 (UTC) (F)     (DEG/KT/KT) (MB)    (FT)
BURNS HARBOR     2040   73     360/ 14/ 16 1013.9S
MICHIGAN CITY    2030   74     360/ 17/ 18   N/A
5NW MICH CITY    2050   73 75  360/ 16/ 21   N/A     5

$$

INZ004-005-014>016-021>024-272200-
NORTH CENTRAL INDIANA

CITY           SKY/WX    TMP DP  RH WIND       PRES   REMARKS
GOSHEN         FAIR      87  66  49 N7        29.88F
SOUTH BEND     FAIR      83  71  67 NW14      29.89F

$$

INZ006>009-017-018-025>027-272200-
NORTHEAST INDIANA

CITY           SKY/WX    TMP DP  RH WIND       PRES   REMARKS
FORT WAYNE     PTSUNNY   80  73  79 N5        29.89S
KENDALLVILLE + PTSUNNY   82  71  69 E8        29.90S

$$

INZ028-029-035-036-043>045-051>053-272200-
WEST CENTRAL INDIANA

CITY           SKY/WX    TMP DP  RH WIND       PRES   REMARKS
LAFAYETTE      CLOUDY    81  74  79 N8        29.87F
TERRE HAUTE    CLOUDY    80  72  76 W7        29.89F

$$

INZ030>032-037>040-046>048-054>057-064-065-272200-
CENTRAL INDIANA

CITY           SKY/WX    TMP DP  RH WIND       PRES   REMARKS
COLUMBUS       CLOUDY    82  66  57 NW10      29.90F
GREENWOOD *+   FAIR     N/A N/A N/A W7        29.90F
INDIANAPOLIS   PTSUNNY   79  72  79 W10       29.89F
-EAGLE CREEK   CLOUDY    79  72  79 W7        29.89F
MT COMFORT *+  PTSUNNY   75  73  94 W6        29.91S
SHELBYVILLE    CLOUDY    81  71  71 W12       29.88F

$$

INZ033-034-041-042-049-050-058-059-272200-
EAST CENTRAL INDIANA

CITY           SKY/WX    TMP DP  RH WIND       PRES   REMARKS
MUNCIE         LGT RAIN  82  72  71 N8        29.88F
RICHMOND +     CLOUDY    73  72  94 W7        29.92F FOG

$$

INZ060-061-067>069-081>083-085>088-272200-
SOUTHWEST INDIANA

CITY           SKY/WX    TMP DP  RH WIND       PRES   REMARKS
EVANSVILLE     FAIR      85  74  69 NW5       29.90F
HUNTINGBURG *+ FAIR      83  75  77 NW5       29.91F

$$

INZ062-063-066-070>080-084-089>092-272200-
SOUTH CENTRAL AND SOUTHEAST INDIANA

CITY           SKY/WX    TMP DP  RH WIND       PRES   REMARKS
BLOOMINGTON    PTSUNNY   81  70  69 NW5       29.90F
MADISON *+     PTSUNNY   86  70  58 W7        29.92F
SEYMOUR +      PTSUNNY   86  72  62 SW3       29.89

$$





USA.gov is the U.S. government's official web portal to all federal, state and local government web resources and services.